Weather History for Newport News, VA

Change the Weather History Date:

Monday, February 4, 2013

  Actual Average Record
Temperature  
Mean Temperature 36 °F -  
Max Temperature 45 °F 46 °F 70 °F (1962)
Min Temperature 27 °F 28 °F 16 °F (1970)
Degree Days  
Heating Degree Days 29    
Moisture  
Dew Point 18 °F    
Average Humidity 44    
Maximum Humidity 66    
Minimum Humidity 35    
Precipitation  
Precipitation 0.00 in - - ()
Sea Level Pressure  
Sea Level Pressure 30.05 in    
Wind  
Wind Speed 7 mph (WSW)    
Max Wind Speed 14 mph    
Max Gust Speed 21 mph    
Visibility 10 miles    
Events      
Averages and records for this station are not official NWS values.
T = Trace of Precipitation, MM = Missing Value Source: NWS Daily Summary

Daily Weather History Graph

Daily Weather History Graph

Search for Another Location

Airport:

Trip Planner

Search our weather history database for the weather conditions in past years. The results will help you decide how hot, cold, wet, or windy it might be!

Date:

Astronomy

Feb. 04, 2013 Rise Set
Actual Time 7:05 AM EST 5:34 PM EST
Civil Twilight 6:38 AM EST 6:01 PM EST
Nautical Twilight 6:07 AM EST 6:32 PM EST
Astronomical Twilight 5:37 AM EST 7:03 PM EST
Moon 1:37 AM EST (2/4) 11:58 AM EST (2/4)
Length of Visible Light 11h 22m
Length of Day
10h 28m
Last Quarter, 37% of the Moon is Illuminated
Feb 4
Last Quarter
Feb 10
New
Feb 17
First Quarter
Feb 25
Full
Mar 4
Last Quarter

Hourly Weather History & Observations

Time (EST) Temp. Windchill Dew Point Humidity Pressure Visibility Wind Dir Wind Speed Gust Speed Precip Events Conditions
12:54 AM 37.9 °F 30.0 °F 17.1 °F 43% 29.96 in 10.0 mi WNW 12.7 mph 20.7 mph N/A   Clear
1:54 AM 36.0 °F 30.3 °F 14.0 °F 41% 29.98 in 10.0 mi NNW 6.9 mph - N/A   Clear
2:54 AM 34.0 °F 28.8 °F 15.1 °F 46% 30.00 in 10.0 mi North 5.8 mph - N/A   Clear
3:54 AM 32.0 °F 28.7 °F 15.1 °F 50% 30.02 in 10.0 mi NNE 3.5 mph - N/A   Clear
5:54 AM 30.0 °F - 16.0 °F 56% 30.06 in 10.0 mi Calm Calm - N/A   Clear
6:54 AM 27.0 °F - 17.1 °F 66% 30.09 in 10.0 mi Calm Calm - N/A   Clear
7:54 AM 28.0 °F 22.8 °F 16.0 °F 61% 30.12 in 10.0 mi North 4.6 mph - N/A   Clear
8:54 AM 32.0 °F 25.6 °F 15.1 °F 50% 30.14 in 10.0 mi North 6.9 mph - N/A   Clear
9:54 AM 34.0 °F 31.0 °F 12.9 °F 42% 30.15 in 10.0 mi ENE 3.5 mph - N/A   Clear
10:54 AM 36.0 °F - 12.9 °F 39% 30.14 in 10.0 mi Calm Calm - N/A   Clear
11:54 AM 37.9 °F - 14.0 °F 38% 30.11 in 10.0 mi Calm Calm - N/A   Clear
12:54 PM 39.9 °F 35.8 °F 15.1 °F 36% 30.10 in 10.0 mi West 5.8 mph - N/A   Clear
1:54 PM 42.1 °F 37.1 °F 17.1 °F 37% 30.07 in 10.0 mi SSW 8.1 mph - N/A   Clear
2:54 PM 43.0 °F 37.2 °F 17.1 °F 35% 30.05 in 10.0 mi SSW 10.4 mph - N/A   Partly Cloudy
3:54 PM 44.1 °F 39.0 °F 19.0 °F 37% 30.04 in 10.0 mi SSW 9.2 mph - N/A   Mostly Cloudy
4:54 PM 45.0 °F 40.6 °F 19.0 °F 36% 30.02 in 10.0 mi SSW 8.1 mph - N/A   Scattered Clouds
5:54 PM 44.1 °F 38.6 °F 19.9 °F 38% 29.99 in 10.0 mi SSW 10.4 mph - N/A   Mostly Cloudy
6:54 PM 43.0 °F 38.2 °F 21.0 °F 42% 30.01 in 10.0 mi SW 8.1 mph - N/A   Clear
7:54 PM 44.6 °F 39.7 °F 21.2 °F 39% 30.00 in 10.0 mi SSW 9.2 mph - N/A   Clear
8:54 PM 43.0 °F 37.2 °F 21.9 °F 43% 30.01 in 10.0 mi SSW 10.4 mph - N/A   Partly Cloudy
9:54 PM 43.0 °F 37.2 °F 23.0 °F 45% 30.01 in 10.0 mi SW 10.4 mph - N/A   Clear
10:54 PM 42.1 °F 35.7 °F 24.1 °F 49% 30.00 in 10.0 mi SSW 11.5 mph - N/A   Clear
11:54 PM 43.0 °F 36.0 °F 24.1 °F 47% 29.99 in 10.0 mi SW 13.8 mph - N/A   Mostly Cloudy